Home > Time Zones > World Clock > Weather > Oman > Muscat > Past weeks

Flag for Oman Weather past 2 weeks in Muscat, Oman

Now
91 °F

Clear.


Feels Like: 111 °F
Forecast: 86 / 92 °F
Wind: 5 mph from North

Location: International Airport

Current Time: Jul 31, 2014 at 9:57:31 AM

Latest Report: Jul 31, 2014 at 8:50 AM


Visibility: 4 mi

Pressure: 29.50 "Hg

Humidity: 71%

Dew point: 81 °F

Location of MuscatLocation

Historic Weather in Muscat — Graph

°F

Muscat temperature yesterday

Maximum temperature yesterday: 93 °F (at 11:50 AM)
Minimum temperature yesterday: 86 °F (at 6:50 AM)
Average temperature yesterday: 89 °F

Past Weeks' High & Low Weather Summary

 TemperatureHumidityPressure
High108 °F (Jul 16, 9:50 AM)100% (Jul 22, 4:50 AM)29.65 "Hg (Jul 22, 4:50 AM)
Low84 °F (Jul 22, 4:50 AM)17% (Jul 25, 1:50 AM)29.33 "Hg (Jul 17, 1:50 AM)
Average91 °F74%29.44 "Hg
* Reported Jul 16 8:50 AM — Jul 31 8:50 AM, Muscat, Weather by CustomWeather, © 2014

Note: Actual official high and low records may vary slightly from our data, if they occured in-between our weather recording intervals... More about our weather records

Advertising

Muscat weather history for previous 24 hours

 ConditionsComfort  
Time TempWeatherWind HumidityBarometerVisibility
8:50 AM
Jul 31
91 °FClear.5 mph71%29.50 "Hg4 mi
7:50 AM90 °FHaze.No wind75%29.50 "Hg3 mi
6:50 AM86 °FHaze.8 mph84%29.50 "Hg3 mi
5:50 AM84 °FHaze.6 mph94%29.50 "Hg3 mi
4:50 AM84 °FPassing clouds.15 mph89%29.50 "Hg4 mi
3:50 AM84 °FPassing clouds.14 mph94%29.47 "Hg4 mi
2:50 AM86 °FClear.5 mph89%29.47 "Hg5 mi
1:50 AM88 °FClear.2 mph84%29.47 "Hg5 mi
12:50 AM86 °FClear.2 mph89%29.47 "Hg5 mi
11:50 PM
Jul 30
88 °FClear.No wind84%29.47 "Hg5 mi
10:50 PM88 °FClear.3 mph84%29.50 "Hg5 mi
9:50 PM86 °FClear.2 mph89%29.50 "Hg5 mi
8:50 PM88 °FClear.2 mph84%29.47 "Hg5 mi
7:50 PM86 °FClear.3 mph89%29.47 "Hg5 mi
6:50 PM88 °FClear.7 mph84%29.45 "Hg5 mi
5:50 PM88 °FPassing clouds.13 mph84%29.45 "Hg6 mi
4:50 PM90 °FPassing clouds.15 mph79%29.45 "Hg6 mi
3:50 PM91 °FScattered clouds.15 mph75%29.45 "Hg6 mi
2:50 PM91 °FClear.17 mph71%29.42 "Hg6 mi
1:50 PM91 °FClear.20 mph71%29.45 "Hg5 mi
12:50 PM91 °FClear.16 mph71%29.45 "Hg5 mi
11:50 AM93 °FClear.15 mph67%29.47 "Hg5 mi
10:50 AM91 °FClear.12 mph71%29.47 "Hg5 mi
9:50 AM91 °FClear.10 mph75%29.47 "Hg5 mi
Weather by CustomWeather, © 2014

See weather overviewHow to use our weather pages